Tracking 20710 objects as of 30-May-2020
HD Live streaming from Space Station
objects crossing your sky now

FENGYUN 1C DEB

Track FENGYUN 1C DEB now!
10-day predictions


NORAD ID: 31994
Int'l Code: 1999-025CPX
Perigee: 799.9 km
Apogee: 1,037.9 km
Inclination: 98.7 °
Period: 103.2 minutes
Semi major axis: 7289 km
RCS: 0.0108 m2 (small)
Launch date: May 10, 1999
Source: People's Republic of China (PRC)
Launch site: Taiyaun Space Center, China (TSC)

Note: This is SATELLITE DEBRIS
aabbcc
Your satellite tracking list
Your tracking list is empty




NASA's NSSDC Master Catalog

Two Line Element Set (TLE):
1 31994U 99025CPX 20150.51961191 -.00000074 +00000-0 -22170-4 0  9991
2 31994 098.6975 249.5484 0163264 358.1235 001.9296 13.94823644285856
Source of the keplerian elements: AFSPC